Muncie, IN

1:12 AM EDT on May 22, 2018 (GMT -0400)
Delaware County-Johnson

Weather History for KMIE - July, 2012

Change the Weather History Date:

Tuesday, July 31, 2012

  Actual Average Record
Temperature  
Mean Temperature 78 °F 74 °F  
Max Temperature 87 °F 84 °F 94 °F (1975)
Min Temperature 68 °F 64 °F 47 °F (1993)
Degree Days  
Heating Degree Days 0 0  
Month to date heating degree days 0 0  
Since 1 June heating degree days 25 27  
Since 1 July heating degree days 0 3  
Cooling Degree Days 13 9  
Month to date cooling degree days 448 294  
Year to date cooling degree days 864 593  
Since 1 June cooling degree days 686 510  
Growing Degree Days 28 (Base 50)    
Moisture  
Dew Point 63 °F    
Average Humidity 66    
Maximum Humidity 90    
Minimum Humidity 42    
Precipitation  
Precipitation T in 0.12 in 1.37 in (1992)
Month to date precipitation 1.94 4.38  
Year to date precipitation 15.82 24.61  
Sea Level Pressure  
Sea Level Pressure 29.92 in    
Wind  
Wind Speed 6 mph (NW)    
Max Wind Speed 23 mph    
Max Gust Speed 33 mph    
Visibility 10 miles    
Events Rain , Thunderstorm    
T = Trace of Precipitation, MM = Missing Value Source: NWS Daily Summary

Daily Weather History Graph

Daily Weather History Graph

Search for Another Location

Airport or City:

Astronomy

Jul. 31, 2012 Rise Set
Actual Time 6:38 AM EDT 8:56 PM EDT
Civil Twilight 6:08 AM EDT 9:26 PM EDT
Nautical Twilight 5:30 AM EDT 10:04 PM EDT
Astronomical Twilight 4:49 AM EDT 10:45 PM EDT
Moon 7:44 PM EDT (7/31) 4:59 AM EDT (7/31)
Length of Visible Light 15h 18m
Length of Day
14h 17m
Waxing Gibbous, 97% of the Moon is Illuminated
Jul 31
Waxing Gibbous
Aug 1
Full
Aug 9
Last Quarter
Aug 17
New
Aug 24
First Quarter

Hourly Weather History & Observations

Time (EDT) Temp. Heat Index Dew Point Humidity Pressure Visibility Wind Dir Wind Speed Gust Speed Precip Events Conditions
12:53 AM 75.9 °F - 60.1 °F 58% 29.91 in 10.0 mi South 4.6 mph - N/A   Clear
1:53 AM 75.9 °F - 59.0 °F 56% 29.90 in 10.0 mi South 6.9 mph - N/A   Clear
2:53 AM 73.9 °F - 59.0 °F 59% 29.90 in 10.0 mi South 6.9 mph - N/A   Clear
3:53 AM 73.0 °F - 60.1 °F 64% 29.90 in 10.0 mi SSW 3.5 mph - N/A   Clear
4:53 AM 73.0 °F - 60.1 °F 64% 29.89 in 10.0 mi SSW 4.6 mph - N/A   Clear
5:53 AM 69.1 °F - 61.0 °F 75% 29.91 in 10.0 mi Calm Calm - N/A   Mostly Cloudy
6:53 AM 72.0 °F - 61.0 °F 68% 29.92 in 9.0 mi Calm Calm - N/A   Mostly Cloudy
7:45 AM 71.6 °F - 62.6 °F 73% 30.01 in 8.0 mi North 15.0 mph 33.4 mph N/A Thunderstorm Mostly Cloudy
7:53 AM 71.1 °F - 62.1 °F 73% 29.98 in 8.0 mi NNE 13.8 mph - N/A Thunderstorm Overcast
8:00 AM 71.6 °F - 60.8 °F 69% 30.02 in 9.0 mi NNE 16.1 mph - N/A   Overcast
8:10 AM 69.8 °F - 62.6 °F 78% 30.03 in 6.0 mi NNE 12.7 mph 20.7 mph 0.00 in Rain , Thunderstorm Thunderstorms and Rain
8:27 AM 69.8 °F - 60.8 °F 73% 30.03 in 10.0 mi NNE 6.9 mph - 0.00 in   Overcast
8:53 AM 70.0 °F - 61.0 °F 73% 29.99 in 10.0 mi NNE 6.9 mph - 0.00 in   Overcast
9:53 AM 70.0 °F - 62.1 °F 76% 29.91 in 10.0 mi SSE 9.2 mph - N/A   Scattered Clouds
10:53 AM 73.0 °F - 61.0 °F 66% 29.90 in 10.0 mi South 6.9 mph - N/A   Clear
11:53 AM 78.1 °F - 62.1 °F 58% 29.91 in 10.0 mi SSW 8.1 mph - N/A   Clear
12:53 PM 82.9 °F 83.3 °F 61.0 °F 47% 29.90 in 10.0 mi SW 6.9 mph - N/A   Clear
1:53 PM 86.0 °F 86.1 °F 61.0 °F 43% 29.89 in 10.0 mi North 5.8 mph - N/A   Clear
3:53 PM 87.1 °F 88.9 °F 64.9 °F 48% 29.88 in 10.0 mi NW 8.1 mph - N/A   Partly Cloudy
4:53 PM 87.1 °F 89.2 °F 66.0 °F 49% 29.86 in 10.0 mi NNW 8.1 mph - N/A   Partly Cloudy
5:53 PM 84.9 °F 87.6 °F 66.9 °F 55% 29.87 in 10.0 mi NNW 8.1 mph - N/A   Mostly Cloudy
6:53 PM 86.0 °F 89.4 °F 68.0 °F 55% 29.85 in 10.0 mi North 6.9 mph - N/A   Mostly Cloudy
7:53 PM 82.9 °F 85.4 °F 66.9 °F 58% 29.86 in 10.0 mi NNW 5.8 mph - N/A   Partly Cloudy
8:53 PM 78.1 °F - 69.1 °F 74% 29.87 in 10.0 mi NW 3.5 mph - N/A   Partly Cloudy
9:53 PM 75.0 °F - 68.0 °F 79% 29.88 in 10.0 mi WNW 4.6 mph - N/A   Partly Cloudy
10:53 PM 72.0 °F - 68.0 °F 87% 29.90 in 8.0 mi NNW 3.5 mph - N/A   Clear